Location: Le Rocchette
(44.3500°N, 7.8333°E)
Time: 12:33:08
(UTC+00:00)

Okean O Rocket - Pass Details

Date: 17 November 2019
Orbit: 622 x 645 km, 98.2° (Epoch: 10 December)

Event Time Altitude Azimuth Distance (km) Brightness Sun altitude
Rises 04:04:09 0° 28° (NNE) 2,912 5.3 -25.3°
Reaches altitude 10° 04:06:53 10° 46° (NE) 2,000 4.7 -24.9°
Maximum altitude 04:10:02 20° 93° (E) 1,469 4.3 -24.3°
Drops below altitude 10° 04:13:11 10° 140° (SE) 1,990 4.7 -23.7°
Sets 04:15:53 0° 158° (SSE) 2,893 5.3 -23.3°
